This demonstration page uses our WeatherBlox Daily Observations layout. Learn more.

40.92945, -100.16068

Hourly Observations for May 4, 2016

Temp ( °F °C ) Dew Point ( °F °C ) Humidity (%) Winds ( mph kmh ) Pressure ( in mb ) Visibility ( mi km ) Precip ( " mm )
12:15 am 00:15 Clear 47 8.5 42 5.4 81 81 W 10 17 30.06 1018 10 16.0934 N/A
12:35 am 00:35 Clear 47 8.1 41 5.1 82 82 WNW 7 11 30.06 1018 10 16.0934 N/A
12:55 am 00:55 Clear 46 7.6 41 5 84 84 WNW 8 13 30.06 1018 10 16.0934 N/A
1:15 am 01:15 Clear 46 8 41 5.2 83 83 WNW 9 15 30.06 1018 10 16.0934 N/A
1:35 am 01:35 Clear 46 7.6 41 4.8 83 83 WNW 10 17 30.06 1018 10 16.0934 N/A
1:55 am 01:55 Clear 46 7.6 41 5 84 84 WNW 8 13 30.06 1018 10 16.0934 N/A
2:15 am 02:15 Clear 47 8.5 41 5 79 79 WNW 10 17 30.06 1018 10 16.0934 N/A
2:35 am 02:35 Clear 47 8.5 41 4.8 78 78 WNW 10 17 30.06 1018 10 16.0934 N/A
2:55 am 02:55 Clear 47 8.4 41 4.8 78 78 NW 8 13 30.06 1018 10 16.0934 N/A
3:15 am 03:15 Clear 45 7 40 4.5 84 84 WNW 7 11 30.09 1019 10 16.0934 N/A
3:35 am 03:35 Clear 45 7 40 4.5 84 84 WNW 8 13 30.09 1019 10 16.0934 N/A
3:55 am 03:55 Clear 45 7 40 4.5 84 84 WNW 7 11 30.09 1019 10 16.0934 N/A
4:15 am 04:15 Clear 44 6.8 40 4.5 85 85 WNW 7 11 30.09 1019 10 16.0934 N/A
4:35 am 04:35 Clear 44 6.8 40 4.3 84 84 WNW 7 11 30.09 1019 10 16.0934 N/A
4:55 am 04:55 Clear 44 6.5 40 4.2 85 85 WNW 8 13 30.09 1019 10 16.0934 N/A
5:15 am 05:15 Clear 43 6.2 39 4 86 86 WNW 6 9 30.09 1019 10 16.0934 N/A
5:35 am 05:35 Clear 43 6.1 39 4.1 87 87 WNW 9 15 30.12 1020 10 16.0934 N/A
5:55 am 05:55 Clear 43 6 39 4 87 87 WNW 9 15 30.12 1020 10 16.0934 N/A
6:15 am 06:15 Clear 43 5.9 39 3.9 87 87 WNW 7 11 30.12 1020 10 16.0934 N/A
6:35 am 06:35 Sunny 42 5.6 39 3.8 88 88 WNW 9 15 30.12 1020 10 16.0934 N/A
6:55 am 06:55 Sunny 42 5.5 39 3.7 88 88 WNW 6 9 30.15 1021 10 16.0934 N/A
7:15 am 07:15 Sunny 42 5.7 39 4 89 89 NW 5 7 30.15 1021 10 16.0934 N/A
7:35 am 07:35 Sunny 44 6.7 40 4.7 87 87 WNW 3 6 30.15 1021 10 16.0934 N/A
7:55 am 07:55 Sunny 46 7.6 42 5.3 86 86 WNW 6 9 30.15 1021 10 16.0934 N/A
8:15 am 08:15 Sunny 48 8.9 43 6 82 82 NW 8 13 30.15 1021 10 16.0934 N/A
8:35 am 08:35 Sunny 50 9.9 44 6.5 80 80 NW 6 9 30.15 1021 10 16.0934 N/A
8:55 am 08:55 Sunny 52 11.3 44 6.6 73 73 N 6 9 30.12 1020 10 16.0934 N/A
9:15 am 09:15 Sunny 56 13.3 42 5.6 60 60 N 8 13 30.12 1020 10 16.0934 N/A
9:35 am 09:35 Sunny 58 14.2 41 4.8 53 53 N 9 15 30.12 1020 10 16.0934 N/A
9:55 am 09:55 Sunny 59 15 38 3.6 47 47 NNE 10 17 30.09 1019 7 11.26538 N/A
10:15 am 10:15 Sunny 60 15.8 38 3.5 44 44 N 7 11 30.09 1019 10 16.0934 N/A
10:35 am 10:35 Sunny 62 16.4 37 2.7 40 40 NNE 9 15 30.09 1019 10 16.0934 N/A
10:55 am 10:55 Sunny 63 17.1 36 2.3 37 37 N 7 11 30.09 1019 10 16.0934 N/A
11:15 am 11:15 Sunny 64 17.5 37 2.7 37 37 N 8 13 30.09 1019 10 16.0934 N/A
11:35 am 11:35 Sunny 65 18.1 38 3.4 38 38 N 12 19 30.06 1018 10 16.0934 N/A
11:55 am 11:55 Sunny 65 18.5 37 2.6 35 35 N 9 15 30.06 1018 10 16.0934 N/A
12:15 pm 12:15 Sunny 66 19 37 3 35 35 N 9 15 30.06 1018 10 16.0934 N/A
12:35 pm 12:35 Sunny 67 19.4 37 2.8 33 33 N 13 20 30.06 1018 10 16.0934 N/A
12:55 pm 12:55 Sunny 67 19.5 36 2.3 32 32 NNW 9 15 30.03 1017 10 16.0934 N/A
1:15 pm 13:15 Sunny 68 20.1 37 3 32 32 N 8 13 30.03 1017 10 16.0934 N/A
1:35 pm 13:35 Sunny 69 20.5 38 3.6 33 33 NNW 13 20 30.03 1017 10 16.0934 N/A
1:55 pm 13:55 Sunny 69 20.7 38 3.1 31 31 NNE 8 13 30.03 1017 10 16.0934 N/A
2:15 pm 14:15 Sunny 70 21 38 3.4 32 32 NNW 12 19 30 1016 10 16.0934 N/A
2:35 pm 14:35 Sunny 70 21.3 40 4.2 33 33 NNW 9 15 30 1016 10 16.0934 N/A
2:55 pm 14:55 Sunny 71 21.5 38 3.4 31 31 NNW 9 15 30 1016 10 16.0934 N/A
3:15 pm 15:15 Sunny 71 21.7 39 4.1 32 32 N 9 15 30 1016 10 16.0934 N/A
3:35 pm 15:35 Sunny 71 21.9 39 3.9 31 31 N 8 13 30 1016 10 16.0934 N/A
3:55 pm 15:55 Sunny 72 22 39 3.9 31 31 NE 12 19 29.97 1015 10 16.0934 N/A
4:15 pm 16:15 Sunny 72 22 40 4.2 31 31 NNE 7 11 29.97 1015 10 16.0934 N/A
4:35 pm 16:35 Sunny 72 22.2 40 4.3 31 31 NNW 6 9 29.97 1015 10 16.0934 N/A
4:55 pm 16:55 Sunny 72 22.3 40 4.3 31 31 N 9 15 29.97 1015 10 16.0934 N/A
5:15 pm 17:15 Sunny 72 22 37 3 29 29 N 8 13 29.97 1015 10 16.0934 N/A
5:35 pm 17:35 Sunny 72 22.2 40 4.2 31 31 N 8 13 29.94 1014 10 16.0934 N/A
5:55 pm 17:55 Sunny 72 22 39 4 31 31 NNE 8 13 29.94 1014 10 16.0934 N/A
6:15 pm 18:15 Sunny 71 21.7 36 2.4 28 28 NNE 6 9 29.94 1014 10 16.0934 N/A
6:35 pm 18:35 Sunny 71 21.6 40 4.3 32 32 NNE 6 9 29.94 1014 10 16.0934 N/A
6:55 pm 18:55 Sunny 70 21 40 4.5 34 34 NNE 7 11 29.94 1014 10 16.0934 N/A
7:15 pm 19:15 Sunny 69 20.7 40 4.4 34 34 NNE 7 11 29.94 1014 10 16.0934 N/A
7:35 pm 19:35 Sunny 68 19.9 41 5 38 38 NE 6 9 29.97 1015 10 16.0934 N/A
7:55 pm 19:55 Sunny 66 18.9 46 7.5 48 48 ENE 5 7 29.97 1015 10 16.0934 N/A
8:15 pm 20:15 Sunny 64 17.7 46 7.5 51 51 ENE 6 9 29.97 1015 10 16.0934 N/A
8:35 pm 20:35 Sunny 62 16.6 43 6.3 51 51 E 5 7 30 1016 10 16.0934 N/A
8:55 pm 20:55 Clear 63 17.1 39 3.8 41 41 E 3 6 29.97 1015 10 16.0934 N/A
9:15 pm 21:15 Clear 62 16.6 38 3.1 41 41 E 3 6 30 1016 10 16.0934 N/A
9:35 pm 21:35 Clear 61 16.1 38 3.2 42 42 ESE 3 6 30 1016 10 16.0934 N/A
9:55 pm 21:55 Clear 60 15.8 37 3 43 43 E 5 7 30.03 1017 10 16.0934 N/A
10:15 pm 22:15 Clear 56 13.5 40 4.2 54 54 Calm 30.06 1018 10 16.0934 N/A
10:35 pm 22:35 Clear 55 12.7 41 4.9 59 59 Calm 30.06 1018 10 16.0934 N/A
10:55 pm 22:55 Clear 54 12.1 41 5 62 62 Calm 30.06 1018 10 16.0934 N/A
11:15 pm 23:15 Clear 51 10.3 42 5.6 73 73 Calm 30.09 1019 10 16.0934 N/A
11:35 pm 23:35 Clear 51 10.7 43 6 73 73 Calm 30.06 1018 10 16.0934 N/A
11:55 pm 23:55 Clear 49 9.7 42 5.8 77 77 Calm 30.09 1019 10 16.0934 N/A

Powered by AerisWeather